Location: Columbia
(38.9520°N, 92.3340°W)
Time: 19:44:41
(UTC-05:00)

SL-08 RB Rocket - Visible Passes

Search period start: 24 April 2014 00:00
Search period end: 04 May 2014 00:00
Orbit: 651 x 689 km, 98.1° (Epoch: 23 April)

Date Brightness Start Highest point End Pass type
(mag) Time Alt. Az. Time Alt. Az. Time Alt. Az.
24 Apr 6.6 00:05:13 10° WNW 00:05:13 10° WNW 00:05:21 10° WNW visible
24 Apr 5.7 21:21:47 12° ENE 21:22:13 13° ENE 21:24:05 10° NE visible
24 Apr 4.7 22:59:59 44° NW 22:59:59 44° NW 23:03:13 10° NNW visible
25 Apr 4.9 21:54:45 26° ENE 21:54:45 26° ENE 21:58:16 10° NNE visible
25 Apr 5.7 23:32:56 23° WNW 23:32:56 23° WNW 23:35:22 10° NW visible
26 Apr 4.1 22:27:42 51° NE 22:27:42 51° NE 22:31:27 10° N visible
27 Apr 6.5 00:05:54 11° WNW 00:05:54 11° WNW 00:06:11 10° WNW visible
27 Apr 5.7 21:22:28 12° ENE 21:23:07 13° ENE 21:25:06 10° NE visible
27 Apr 4.5 23:00:39 48° NW 23:00:39 48° NW 23:04:08 10° NNW visible
28 Apr 4.9 21:55:25 27° ENE 21:55:27 27° ENE 21:59:13 10° NNE visible
28 Apr 5.7 23:33:37 24° WNW 23:33:37 24° WNW 23:36:15 10° NW visible
29 Apr 3.9 22:28:22 56° NE 22:28:22 56° NE 22:32:23 10° N visible
30 Apr 6.5 00:06:34 11° WNW 00:06:34 11° WNW 00:07:00 10° WNW visible
30 Apr 5.7 21:23:08 12° ENE 21:24:01 13° ENE 21:26:05 10° NE visible
30 Apr 4.4 23:01:20 51° WNW 23:01:20 51° WNW 23:05:02 10° NNW visible
01 May 4.8 21:56:05 27° ENE 21:56:20 27° ENE 22:00:09 10° NNE visible
01 May 5.6 23:34:17 24° WNW 23:34:17 24° WNW 23:37:08 10° NW visible
02 May 3.8 22:29:02 60° ENE 22:29:02 60° ENE 22:33:17 10° N visible
03 May 6.4 00:07:14 11° WNW 00:07:14 11° WNW 00:07:48 10° WNW visible
03 May 5.7 21:23:47 12° E 21:24:54 13° ENE 21:27:04 10° NE visible
03 May 4.2 23:01:59 54° WNW 23:01:59 54° WNW 23:05:56 10° NNW visible
